Wind_Speed
27 28 30 34 37 40 42 44 46 47 48 48 45 46 44 46 46 46 46 46 46 47 48 49 49 50 50
27 30 34 37 40 43 43 45 46 45 46 45 44 43 43 44 44 44 45 46 47 47 48 49 49 50 50
33 36 39 41 43 45 45 45 43 43 43 40 42 42 41 42 43 44 45 45 45 46 47 48 49 51 52
37 39 41 43 46 48 47 45 43 41 42 39 40 39 40 40 40 40 41 42 42 42 42 43 44 46 49
39 40 42 44 46 46 46 46 41 41 42 36 39 37 37 37 37 37 38 39 39 40 41 43 43 43 43
40 41 42 42 43 43 43 43 41 35 40 35 39 40 39 37 35 34 35 36 37 39 41 41 41 41 41
39 39 39 39 40 39 38 39 38 37 40 38 38 38 37 35 33 33 33 33 35 38 39 40 40 41 40
37 36 37 37 37 38 37 38 35 35 37 38 37 36 34 32 32 33 32 33 34 35 38 40 41 42 42
36 36 36 35 36 37 35 37 36 35 35 37 36 36 34 32 32 31 31 33 34 37 38 38 39 41 41
33 33 33 33 34 35 35 36 36 35 34 36 36 38 37 34 34 33 32 33 35 36 37 37 37 38 40
32 32 32 32 32 33 33 34 34 35 34 36 36 36 37 38 38 36 36 35 36 36 35 35 33 32 36
32 32 31 31 30 31 32 32 33 35 34 34 35 35 37 38 39 37 36 36 37 37 34 32 30 29 27
33 33 33 33 33 33 33 32 32 32 32 32 32 33 35 37 39 37 37 37 35 35 33 30 28 25 23
33 34 35 35 34 34 33 32 31 30 28 29 30 32 34 34 35 35 35 38 34 33 31 27 24 21 21
35 35 35 34 33 31 30 30 30 30 29 26 28 31 33 35 34 32 34 33 31 30 28 26 22 18 18
34 34 33 32 31 28 28 29 29 28 29 28 29 31 32 30 29 29 30 31 29 26 24 26 22 14 14
32 32 31 30 28 27 27 27 27 27 26 26 28 30 33 33 29 24 29 29 28 23 21 21 20 14 15
Wind_Direction
296 299 302 305 307 308 308 308 308 308 307 306 308 305 303 301 301 301 299 296 294 291 289 287 285 283 280
296 298 302 304 305 306 307 307 307 307 306 308 308 307 307 305 305 303 301 299 296 293 291 288 286 283 281
300 302 304 305 305 306 306 306 307 308 307 309 306 307 307 307 306 304 302 300 297 294 291 288 285 282 280
303 305 306 306 306 306 307 308 310 309 307 310 307 307 308 308 307 305 304 304 304 302 299 295 291 287 282
303 305 306 306 306 307 308 310 312 310 307 311 307 306 308 308 309 308 308 308 307 307 305 303 302 299 294
305 305 305 306 306 308 310 309 310 307 305 312 309 312 313 313 313 312 309 309 307 306 304 304 304 303 300
304 305 305 305 308 309 309 308 309 310 310 314 311 313 314 315 314 312 310 311 310 309 307 305 303 301 300
304 305 309 310 309 308 307 306 309 309 309 310 311 316 318 318 315 315 317 315 314 312 309 307 305 302 300
307 310 309 308 306 305 305 305 305 306 308 308 312 314 317 320 317 318 321 317 314 311 310 308 304 300 298
308 308 306 304 304 304 305 305 305 306 309 309 314 315 317 322 321 320 317 317 314 311 310 308 307 304 300
306 304 303 304 303 303 303 303 304 307 311 310 311 312 314 318 321 322 319 317 313 312 310 308 311 307 304
305 304 304 303 302 301 301 301 303 306 307 306 307 310 313 316 319 320 319 316 315 313 314 311 310 305 303
305 305 305 305 306 305 305 303 302 304 304 302 304 308 311 314 317 321 319 316 317 315 316 315 316 312 309
307 309 309 308 307 305 303 302 301 302 302 301 302 307 311 313 316 319 319 317 320 316 315 319 321 313 314
311 310 308 307 306 305 304 303 304 304 304 302 304 306 309 313 318 319 316 316 320 320 319 318 327 315 310
308 307 307 307 307 306 305 305 306 307 307 307 307 307 308 311 318 322 316 321 323 320 319 319 325 307 307
308 307 307 307 307 307 307 307 307 308 311 314 312 312 314 318 323 329 318 322 322 320 318 320 324 312 315
Height
3105 3103 3100 3097 3093 3089 3086 3082 3077 3072 3066 3061 3058 3053 3049 3045 3040 3037 3033 3029 3026 3023 3019 3016 3014 3012 3011
3099 3096 3093 3089 3084 3080 3077 3073 3068 3062 3055 3051 3046 3042 3038 3034 3030 3025 3021 3017 3013 3010 3006 3002 3000 2997 2995
3089 3086 3082 3077 3073 3070 3066 3061 3057 3053 3046 3043 3037 3033 3029 3024 3019 3013 3008 3003 3000 2996 2992 2988 2985 2982 2979
3079 3075 3070 3066 3061 3057 3053 3050 3045 3041 3036 3034 3028 3024 3020 3015 3010 3004 2997 2992 2987 2982 2978 2974 2971 2968 2965
3070 3065 3061 3056 3050 3046 3041 3036 3036 3030 3024 3026 3019 3016 3012 3007 3000 2994 2988 2982 2977 2971 2966 2961 2958 2955 2952
3060 3056 3050 3046 3041 3036 3031 3027 3025 3024 3015 3018 3007 3004 3001 2996 2991 2985 2980 2974 2968 2963 2957 2952 2948 2944 2941
3050 3047 3042 3036 3031 3027 3023 3019 3015 3011 3006 3004 2999 2996 2992 2987 2982 2977 2972 2967 2961 2954 2947 2942 2938 2933 2930
3042 3038 3032 3027 3022 3018 3015 3011 3009 3004 2998 2994 2990 2987 2983 2978 2973 2968 2963 2957 2951 2946 2939 2932 2927 2922 2918
3033 3028 3023 3019 3015 3011 3008 3003 3000 2997 2992 2985 2982 2977 2974 2970 2965 2960 2955 2949 2943 2937 2931 2926 2919 2913 2908
3024 3020 3015 3011 3007 3002 2998 2995 2991 2988 2984 2978 2973 2966 2964 2961 2956 2953 2948 2942 2935 2929 2923 2917 2911 2904 2899
3017 3013 3009 3004 3000 2996 2991 2987 2983 2979 2975 2969 2966 2961 2956 2951 2948 2944 2938 2933 2927 2921 2915 2909 2904 2898 2890
3009 3005 3001 2997 2993 2988 2984 2980 2975 2971 2968 2963 2958 2953 2948 2944 2939 2936 2930 2924 2917 2911 2906 2902 2897 2892 2887
3000 2996 2991 2987 2983 2979 2975 2971 2968 2965 2960 2956 2951 2946 2942 2936 2931 2927 2921 2916 2911 2903 2899 2895 2889 2884 2880
2991 2986 2981 2977 2974 2970 2967 2963 2960 2958 2954 2949 2944 2940 2935 2930 2925 2920 2915 2906 2903 2897 2892 2889 2885 2880 2876
2981 2977 2973 2969 2966 2962 2958 2955 2952 2949 2946 2943 2938 2933 2928 2923 2918 2914 2907 2901 2896 2891 2886 2883 2881 2876 2873
2973 2969 2966 2962 2958 2955 2951 2948 2944 2941 2938 2934 2930 2926 2922 2919 2913 2907 2900 2895 2891 2887 2883 2877 2876 2873 2869
2966 2962 2958 2955 2951 2948 2944 2941 2938 2934 2931 2928 2923 2918 2912 2908 2907 2902 2893 2889 2885 2882 2879 2875 2871 2869 2866